Regional Weather Roundup
Issued by NWS

Home | Current Version | Previous Version | Graphics & Text | Print | Product List | Glossary On
Versions: 1 2 3 4 5 6 7 8 9 10 11 12 13 14 15 16 17 18 19 20 21 22 23 24 25 26 27 28 29 30 31 32 33 34 35 36 37 38 39 40 41 42 43 44 45 46 47 48 49 50
000
ASUS43 KDMX 290408
RWRIA

WEATHER ROUNDUP FOR IOWA
NATIONAL WEATHER SERVICE DES MOINES IA
1100 PM CDT THU APR 28 2016

NOTE: "FAIR" INDICATES FEW OR NO CLOUDS BELOW 12,000 FEET WITH NO
SIGNIFICANT WEATHER AND/OR OBSTRUCTIONS TO VISIBILITY.

* - THESE STATIONS ARE NOT NWS STATIONS...THUS NOT UNDER NWS
QUALITY CONTROL.  THEY ALSO DO NOT REPORT WEATHER SUCH
AS PRECIPITATION OR FOG.

IAZ001>003-012>014-020>022-031>034-043>046-290500-
   NORTHWEST IOWA

CITY           SKY/WX    TMP DP  RH WIND       PRES   REMARKS
CARROLL *      CLOUDY    45  41  87 N8        30.09R
CHEROKEE *     CLOUDY    41  39  93 N7        30.10R
DENISON *      CLOUDY    43  41  93 N6        30.07S FOG
LE MARS *      CLOUDY    43  39  87 N8        30.12R
ORANGE CITY *  CLOUDY    39  37  93 NE6       30.10R WCI  35
SHELDON *      CLOUDY    39  39 100 N9        30.09R FOG     WCI  33
SIOUX CITY     CLOUDY    45  39  79 N8        30.10S
SPENCER        CLOUDY    40  37  89 NE9       30.10R WCI  34
STORM LAKE *   MIX PCPN  41  39  93 N9        30.09S
$$

IAZ055>058-069>071-079>083-090>094-290500-
   SOUTHWEST IOWA

CITY           SKY/WX    TMP DP  RH WIND       PRES   REMARKS
ATLANTIC *     CLOUDY    45  43  93 NW3       30.09S
AUDUBON *      CLOUDY    45  39  81 N6        30.09S
CLARINDA *       N/A    N/A N/A N/A MISG        N/A
COUNCIL BLFS * CLOUDY    45  41  87 NW6       30.11R
CRESTON *      CLOUDY    46  43  87 NW8       30.09R
HARLAN  *      CLOUDY    45  43  93 N7        30.12S
LAMONI         CLOUDY    48  42  80 NW8       30.06S
RED OAK *      CLOUDY    46  41  81 N6        30.10S
SHENANDOAH *   CLOUDY    48  45  87 N5        30.11S
$$

IAZ047>049-059>061-072>074-084-290500-
   CENTRAL IOWA

CITY           SKY/WX    TMP DP  RH WIND       PRES   REMARKS
AMES           CLOUDY    48  45  89 NW6       30.06R
ANKENY *       CLOUDY    48  48 100 NW7       30.06R
BOONE *        CLOUDY    46  45  93 N10       30.06R
CHARITON *     CLOUDY    50  45  81 NW8       30.05S
DES MOINES     DRIZZLE   49  45  86 NW9       30.06R FOG
GRINNELL*      CLOUDY    48  46  93 N8        30.05R
KNOXVILLE *    CLOUDY    50  48  93 W8        30.04R
MARSHALLTOWN   CLOUDY    46  45  96 N6        30.04R FOG
NEWTON *       CLOUDY    48  48 100 N6        30.04R
PELLA *        MOCLDY    50  48  93 NW6       30.06R
$$

IAZ004>006-015-016-023>025-035-036-290500-
   NORTH CENTRAL IOWA

CITY           SKY/WX    TMP DP  RH WIND       PRES   REMARKS
ALGONA *       CLOUDY    41  39  93 N9        30.08R
CLARION *      CLOUDY    43  43 100 NE12      30.07R
ESTHERVILLE    CLOUDY    39  37  92 N7        30.09S WCI  34
FORT DODGE *   CLOUDY    43  37  81 N9        30.08R
MASON CITY     CLOUDY    41  40  96 NE10      30.08R
FOREST CITY *  CLOUDY    39  39 100 NE7       30.07S WCI  34
WEBSTER CITY * CLOUDY    45  43  93 N9        30.05R
IOWA FALLS *   CLOUDY    45  43  93 NE8       30.07R FOG
$$

IAZ007>011-017>019-026>030-037>042-050>054-066-290500-
   NORTHEAST IOWA

CITY           SKY/WX    TMP DP  RH WIND       PRES   REMARKS
CEDAR RAPIDS   CLOUDY    46  46 100 NE7       30.02R FOG
CHARLES CITY * CLOUDY    41  41 100 NE8       30.06S FOG
CLINTON *      CLOUDY    46  44  93 NE8       30.02R
DECORAH *      CLOUDY    39  39 100 CALM      30.06R
DUBUQUE        CLOUDY    41  40  96 NE8       30.03S FOG
MONTICELLO *   CLOUDY    45  43  93 NE8       30.02F
OELWEIN *      CLOUDY    43  43 100 NE9       30.05S
WATERLOO       CLOUDY    44  41  89 NE3       30.05R
$$

IAZ064-065-067-068-078-290500-
   EAST CENTRAL IOWA

CITY           SKY/WX    TMP DP  RH WIND       PRES   REMARKS
DAVENPORT      CLOUDY    49  47  93 E9        30.01R FOG
IOWA CITY      CLOUDY    49  47  93 N7        30.03R
MT. PLEASANT * CLOUDY    55  52  88 W6        30.02R
MUSCATINE *    CLOUDY    52  50  93 N3        30.01R
QUAD CITIES    CLOUDY    51  48  89 SE3       29.99S FOG
$$

IAZ062-063-075>077-085>089-095>099-290500-
   SOUTHEAST IOWA

CITY           SKY/WX    TMP DP  RH WIND       PRES   REMARKS
BURLINGTON     CLOUDY    54  49  83 W7        30.01R
FAIRFIELD *    CLOUDY    52  48  87 W9        30.02R
FORT MADISON * CLOUDY    54  48  82 W8        30.03R
KEOKUK *       MOCLDY    54  48  82 W8        30.02R
OSKALOOSA *    CLOUDY    50  48  93 W7        30.04R FOG
OTTUMWA        CLOUDY    50  48  93 W7        30.03R FOG
WASHINGTON *   CLOUDY    52  52 100 W7        30.03R
$$

ABBREVIATIONS USED IN REMARKS
   TC - TEMPERATURES IN CELSIUS
  WCI - WIND CHILL INDEX
   HX - HEAT INDEX
  VSB - VISIBILITY
$$





USA.gov is the U.S. government's official web portal to all federal, state and local government web resources and services.